FW7740 Weather Reports


Display with metric or nautical units.
time (UTC)temp
F
wind
direction
speed
MPH
gust
MPH
rain 1hr
in
rain 24hr
in
rain mn
in
humidity
%
barometer
mb
20260504010110 66 304 0.0 0.0 0.00 0.00 0.00 56 1011.8
20260504005607 67 304 0.0 0.0 0.00 0.00 0.00 55 1011.8
20260504005104 68 304 0.0 0.0 0.00 0.00 0.00 52 1011.8
20260504004602 68 304 0.0 0.0 0.00 0.00 0.00 52 1011.8
20260504004059 69 304 0.0 0.0 0.00 0.00 0.00 49 1011.8
20260504003554 69 304 0.0 0.0 0.00 0.00 0.00 48 1011.8
20260504003051 70 304 0.0 0.0 0.00 0.00 0.00 48 1011.8
20260504002548 71 304 0.0 0.0 0.00 0.00 0.00 47 1011.8
20260504002046 72 304 0.0 0.0 0.00 0.00 0.00 44 1011.8
20260504001544 72 304 0.0 0.0 0.00 0.00 0.00 43 1011.8
20260504001039 73 304 0.0 0.0 0.00 0.00 0.00 40 1012.1
20260504000537 73 304 0.0 0.0 0.00 0.00 0.00 40 1011.8
20260504000034 74 305 0.0 0.0 0.00 0.00 0.00 38 1011.8
20260503235532 74 304 0.0 0.0 0.00 0.00 0.00 36 1011.8
20260503235029 75 293 0.0 0.0 0.00 0.00 0.00 36 1011.8
20260503234526 75 295 0.0 0.0 0.00 0.00 0.00 35 1012.1
20260503234025 76 338 0.0 0.0 0.00 0.00 0.00 33 1011.8
20260503233521 77 282 0.0 0.0 0.00 0.00 0.00 33 1011.8
20260503233017 77 301 0.0 1.0 0.00 0.00 0.00 32 1011.8
20260503232514 78 191 2.0 5.0 0.00 0.00 0.00 30 1011.8
20260503232012 78 41 2.0 2.0 0.00 0.00 0.00 30 1012.1
20260503231509 78 307 1.0 2.0 0.00 0.00 0.00 28 1011.8
20260503231006 78 219 2.0 3.0 0.00 0.00 0.00 29 1012.1
20260503230502 78 291 0.0 0.0 0.00 0.00 0.00 29 1011.8
20260503230000 78 231 3.0 3.0 0.00 0.00 0.00 30 1012.1
20260503225456 79 277 1.0 2.0 0.00 0.00 0.00 33 1012.1
20260503224952 79 273 0.0 0.0 0.00 0.00 0.00 31 1011.8
20260503224449 79 121 2.0 2.0 0.00 0.00 0.00 31 1012.1
20260503223947 79 172 5.0 6.0 0.00 0.00 0.00 30 1012.1
20260503223445 80 85 3.0 3.0 0.00 0.00 0.00 30 1011.8
20260503222940 79 112 1.0 5.0 0.00 0.00 0.00 31 1011.8
20260503222439 79 121 2.0 2.0 0.00 0.00 0.00 30 1012.1
20260503221936 80 258 1.0 2.0 0.00 0.00 0.00 30 1012.1
20260503221434 80 167 6.0 7.0 0.00 0.00 0.00 30 1011.8
20260503220931 80 111 5.0 7.0 0.00 0.00 0.00 30 1012.1
20260503220427 80 354 1.0 1.0 0.00 0.00 0.00 30 1012.1
20260503215925 81 46 1.0 1.0 0.00 0.00 0.00 28 1012.1
20260503215421 81 327 1.0 1.0 0.00 0.00 0.00 29 1012.5
20260503214919 81 284 1.0 2.0 0.00 0.00 0.00 29 1012.5
20260503214416 81 331 4.0 5.0 0.00 0.00 0.00 27 1012.1
20260503213914 82 211 6.0 9.0 0.00 0.00 0.00 27 1012.5
20260503213412 81 349 1.0 2.0 0.00 0.00 0.00 27 1012.5
20260503212908 82 333 1.0 1.0 0.00 0.00 0.00 28 1012.5
20260503212406 82 313 3.0 5.0 0.00 0.00 0.00 27 1012.5
20260503211903 82 276 1.0 1.0 0.00 0.00 0.00 29 1012.8
20260503211359 82 255 1.0 1.0 0.00 0.00 0.00 28 1012.5
20260503210854 82 93 4.0 5.0 0.00 0.00 0.00 29 1012.8
20260503210352 82 180 3.0 6.0 0.00 0.00 0.00 29 1012.8
20260503205847 82 74 5.0 8.0 0.00 0.00 0.00 28 1013.1
20260503205344 82 25 3.0 3.0 0.00 0.00 0.00 28 1012.8
20260503204840 82 188 3.0 5.0 0.00 0.00 0.00 29 1013.1
20260503204338 82 324 2.0 3.0 0.00 0.00 0.00 28 1013.5
20260503203835 81 256 4.0 5.0 0.00 0.00 0.00 28 1013.5
20260503203332 81 104 10.0 10.0 0.00 0.00 0.00 28 1013.5
20260503202829 82 160 5.0 7.0 0.00 0.00 0.00 27 1013.5
20260503202327 81 189 4.0 6.0 0.00 0.00 0.00 29 1013.5
20260503201825 81 100 4.0 5.0 0.00 0.00 0.00 30 1013.8
20260503201321 81 343 1.0 1.0 0.00 0.00 0.00 31 1013.5
20260503200819 81 198 4.0 5.0 0.00 0.00 0.00 32 1013.8
20260503200315 80 244 3.0 5.0 0.00 0.00 0.00 33 1013.8
20260503195812 80 206 5.0 5.0 0.00 0.00 0.00 32 1013.8
20260503195309 81 290 1.0 1.0 0.00 0.00 0.00 33 1014.2
20260503194806 80 262 1.0 2.0 0.00 0.00 0.00 33 1014.2
20260503194302 80 30 3.0 2.0 0.00 0.00 0.00 33 1014.6
20260503193758 80 73 2.0 3.0 0.00 0.00 0.00 34 1014.6
20260503193254 80 146 5.0 7.0 0.00 0.00 0.00 34 1014.6
20260503192750 80 89 2.0 2.0 0.00 0.00 0.00 35 1014.9
20260503192245 80 185 1.0 2.0 0.00 0.00 0.00 35 1014.9
20260503191737 79 281 0.0 0.0 0.00 0.00 0.00 36 1014.9
20260503191229 78 157 3.0 3.0 0.00 0.00 0.00 34 1014.9
20260503190725 79 132 6.0 7.0 0.00 0.00 0.00 34 1015.3
20260503190222 78 181 4.0 6.0 0.00 0.00 0.00 36 1015.6
20260503185720 78 126 6.0 8.0 0.00 0.00 0.00 34 1015.3
20260503185215 77 273 3.0 5.0 0.00 0.00 0.00 36 1015.3
20260503184714 78 231 5.0 5.0 0.00 0.00 0.00 36 1015.3
20260503184211 78 51 3.0 3.0 0.00 0.00 0.00 35 1015.3
20260503183708 77 256 1.0 2.0 0.00 0.00 0.00 37 1015.3
20260503183205 77 153 5.0 7.0 0.00 0.00 0.00 35 1015.3
20260503182703 77 163 4.0 5.0 0.00 0.00 0.00 36 1015.6
20260503182201 77 158 4.0 5.0 0.00 0.00 0.00 36 1015.6
20260503181657 76 284 2.0 2.0 0.00 0.00 0.00 36 1015.6
20260503181154 76 245 3.0 3.0 0.00 0.00 0.00 36 1015.9
20260503180651 75 263 2.0 2.0 0.00 0.00 0.00 37 1015.9
20260503180150 76 242 4.0 6.0 0.00 0.00 0.00 35 1015.9
20260503175646 76 219 3.0 3.0 0.00 0.00 0.00 37 1016.3
20260503175143 76 157 2.0 5.0 0.00 0.00 0.00 36 1016.3
20260503174640 76 137 8.0 8.0 0.00 0.00 0.00 35 1016.3
20260503174137 75 2 5.0 7.0 0.00 0.00 0.00 35 1016.6
20260503173632 75 264 2.0 3.0 0.00 0.00 0.00 36 1017.0
20260503173129 75 332 1.0 2.0 0.00 0.00 0.00 37 1016.6
20260503172626 74 192 5.0 9.0 0.00 0.00 0.00 35 1017.0
20260503172123 75 218 5.0 5.0 0.00 0.00 0.00 36 1017.0
20260503171620 74 209 6.0 7.0 0.00 0.00 0.00 35 1017.0
20260503171117 73 241 2.0 2.0 0.00 0.00 0.00 36 1017.0
20260503170614 73 202 7.0 9.0 0.00 0.00 0.00 36 1017.6
20260503170110 73 159 7.0 8.0 0.00 0.00 0.00 35 1017.6
20260503151006 67 21 1.0 1.0 0.00 0.00 0.00 37 1018.8
20260503150502 67 220 3.0 6.0 0.00 0.00 0.00 36 1018.8
20260503131344 50 335 0.0 0.0 0.00 0.00 0.00 76 1019.4
20260503130841 49 306 1.0 1.0 0.00 0.00 0.00 78 1019.8
20260503130338 47 305 0.0 0.0 0.00 0.00 0.00 79 1019.8
20260503110727 35 303 0.0 0.0 0.00 0.00 0.00 95 1019.4
20260503110224 35 303 0.0 0.0 0.00 0.00 0.00 95 1019.8
20260503100144 36 303 0.0 0.0 0.00 0.00 0.00 94 1019.8
20260503081533 38 303 0.0 0.0 0.00 0.00 0.00 93 1020.4
20260503081030 38 303 0.0 0.0 0.00 0.00 0.00 93 1020.8
20260503080526 38 303 0.0 0.0 0.00 0.00 0.00 93 1020.4
20260503072500 38 303 0.0 0.0 0.00 0.00 0.00 93 1020.8
20260503071957 38 303 0.0 0.0 0.00 0.00 0.00 93 1020.8
20260503071454 38 303 0.0 0.0 0.00 0.00 0.00 93 1020.8
20260503070950 38 303 0.0 0.0 0.00 0.00 0.00 93 1020.8
20260503070447 38 303 0.0 0.0 0.00 0.00 0.00 93 1020.8
20260503054900 40 303 0.0 0.0 0.00 0.00 0.00 91 1021.5
20260503054356 40 303 0.0 0.0 0.00 0.00 0.00 91 1021.1
20260503053854 40 303 0.0 0.0 0.00 0.00 0.00 91 1021.5
20260503053352 40 303 0.0 0.0 0.00 0.00 0.00 91 1021.5
20260503052848 40 303 0.0 0.0 0.00 0.00 0.00 91 1021.5
20260503052345 40 304 0.0 0.0 0.00 0.00 0.00 91 1021.5
20260503051841 40 304 0.0 0.0 0.00 0.00 0.00 91 1021.5
20260503051338 40 304 0.0 0.0 0.00 0.00 0.00 91 1021.5
20260503050835 41 304 0.0 0.0 0.00 0.00 0.00 91 1021.5
20260503050331 41 304 0.0 0.0 0.00 0.00 0.00 91 1021.5
20260503045829 41 304 0.0 0.0 0.00 0.00 0.00 91 1021.5
20260503045327 41 304 0.0 0.0 0.00 0.00 0.00 90 1021.5
20260503044822 41 305 0.0 0.0 0.00 0.00 0.00 91 1021.1
20260503044320 41 304 0.0 0.0 0.00 0.00 0.00 90 1021.5
20260503043817 41 304 0.0 0.0 0.00 0.00 0.00 90 1021.5
20260503043314 41 305 0.0 0.0 0.00 0.00 0.00 90 1021.5
20260503042810 41 305 0.0 0.0 0.00 0.00 0.00 90 1021.5
20260503042307 41 305 0.0 0.0 0.00 0.00 0.00 90 1021.1
20260503041803 42 305 0.0 0.0 0.00 0.00 0.00 89 1021.5
20260503041300 42 305 0.0 0.0 0.00 0.00 0.00 89 1021.5
20260503040758 42 305 0.0 0.0 0.00 0.00 0.00 88 1021.5
20260503040255 42 305 0.0 0.0 0.00 0.00 0.00 88 1021.5
20260503035752 42 306 0.0 0.0 0.00 0.00 0.00 88 1021.5
20260503035249 43 306 0.0 0.0 0.00 0.00 0.00 87 1021.5
20260503034746 43 307 0.0 0.0 0.00 0.00 0.00 87 1021.5
20260503034243 43 306 0.0 0.0 0.00 0.00 0.00 87 1021.5
20260503033741 43 307 0.0 0.0 0.00 0.00 0.00 87 1021.5
20260503033238 43 309 0.0 0.0 0.00 0.00 0.00 87 1021.5
20260503032736 43 314 0.0 0.0 0.00 0.00 0.00 87 1021.5
20260503032235 43 314 0.0 0.0 0.00 0.00 0.00 87 1021.5
20260503031731 43 322 0.0 0.0 0.00 0.00 0.00 87 1021.5
20260503031229 44 322 0.0 0.0 0.00 0.00 0.00 87 1021.5
20260503030725 44 322 0.0 0.0 0.00 0.00 0.00 87 1021.5
20260503030222 44 321 0.0 0.0 0.00 0.00 0.00 86 1021.5
20260503025719 44 322 0.0 0.0 0.00 0.00 0.00 85 1021.5
20260503025216 45 322 0.0 0.0 0.00 0.00 0.00 85 1021.5
20260503024713 45 322 0.0 0.0 0.00 0.00 0.00 84 1021.1
20260503024210 45 322 0.0 0.0 0.00 0.00 0.00 83 1021.1
20260503023707 45 322 0.0 0.0 0.00 0.00 0.00 83 1021.5
20260503023204 46 322 0.0 0.0 0.00 0.00 0.00 82 1021.5
20260503022700 46 322 0.0 0.0 0.00 0.00 0.00 81 1021.1
20260503022159 46 322 0.0 0.0 0.00 0.00 0.00 80 1021.1
20260503021657 47 322 0.0 0.0 0.00 0.00 0.00 80 1021.1
20260503021153 47 321 0.0 0.0 0.00 0.00 0.00 79 1020.8
20260503020650 47 322 0.0 0.0 0.00 0.00 0.00 77 1021.1
20260503020148 48 322 0.0 0.0 0.00 0.00 0.00 76 1020.8
20260503015644 48 322 0.0 0.0 0.00 0.00 0.00 74 1021.1
20260503015141 48 322 0.0 0.0 0.00 0.00 0.00 73 1020.8
20260503014637 49 322 0.0 0.0 0.00 0.00 0.00 71 1020.8
20260503014135 49 306 0.0 0.0 0.00 0.00 0.00 70 1020.8
20260503013632 50 306 0.0 0.0 0.00 0.00 0.00 69 1020.8
20260503013130 50 314 0.0 0.0 0.00 0.00 0.00 68 1020.8
20260503012627 51 314 0.0 0.0 0.00 0.00 0.00 65 1020.4
20260503012124 52 314 0.0 0.0 0.00 0.00 0.00 63 1020.4
20260503011620 52 314 0.0 0.0 0.00 0.00 0.00 63 1020.8
20260503011118 52 314 0.0 0.0 0.00 0.00 0.00 61 1020.8
20260503010614 53 314 0.0 0.0 0.00 0.00 0.00 59 1020.4